Time,TemperatureF,DewpointF,PressureIn,WindDirection,WindDirectionDegrees,WindSpeedMPH,WindSpeedGustMPH,Humidity,HourlyPrecipIn,Conditions,Clouds,dailyrainin,SoftwareType,DateUTC
2013-03-31 00:01:00,38.0,22.0,29.96,WNW,291,0.0,-999.0,52,-99.99,,,-99.99,,2013-03-31 06:01:00,
2013-03-31 00:11:00,38.0,22.0,29.96,WNW,291,0.0,-999.0,52,-99.99,,,-99.99,,2013-03-31 06:11:00,
2013-03-31 00:22:00,38.0,22.0,29.96,WNW,290,0.0,-999.0,52,-99.99,,,-99.99,,2013-03-31 06:22:00,
2013-03-31 00:32:00,38.0,22.0,29.96,WNW,290,0.0,-999.0,52,-99.99,,,-99.99,,2013-03-31 06:32:00,
2013-03-31 00:42:00,38.0,22.0,29.96,WNW,290,0.0,-999.0,52,-99.99,,,-99.99,,2013-03-31 06:42:00,
2013-03-31 00:52:00,38.0,22.0,29.97,WNW,290,0.0,-999.0,53,-99.99,,,-99.99,,2013-03-31 06:52:00,
2013-03-31 01:01:00,37.0,22.0,29.97,WNW,290,0.0,-999.0,54,-99.99,,,-99.99,,2013-03-31 07:01:00,
2013-03-31 01:11:00,37.0,22.0,29.97,WNW,290,0.0,-999.0,54,-99.99,,,-99.99,,2013-03-31 07:11:00,
2013-03-31 01:22:00,37.0,22.0,29.97,WNW,290,0.0,-999.0,54,-99.99,,,-99.99,,2013-03-31 07:22:00,
2013-03-31 01:32:00,37.0,23.0,29.97,WNW,290,0.0,-999.0,56,-99.99,,,-99.99,,2013-03-31 07:32:00,
2013-03-31 01:42:00,37.0,23.0,29.97,WNW,290,0.0,-999.0,56,-99.99,,,-99.99,,2013-03-31 07:42:00,
2013-03-31 01:53:00,37.0,22.0,29.96,WNW,290,0.0,-999.0,55,-99.99,,,-99.99,,2013-03-31 07:53:00,
2013-03-31 02:01:00,36.0,22.0,29.96,WNW,290,0.0,-999.0,56,-99.99,,,-99.99,,2013-03-31 08:01:00,
2013-03-31 02:12:00,36.0,22.0,29.96,WNW,290,0.0,-999.0,56,-99.99,,,-99.99,,2013-03-31 08:12:00,
2013-03-31 02:22:00,36.0,22.0,29.96,WNW,290,0.0,-999.0,56,-99.99,,,-99.99,,2013-03-31 08:22:00,
2013-03-31 02:31:00,36.0,22.0,29.96,WNW,290,0.0,-999.0,56,-99.99,,,-99.99,,2013-03-31 08:31:00,
2013-03-31 02:42:00,36.0,22.0,29.96,WNW,290,0.0,-999.0,56,-99.99,,,-99.99,,2013-03-31 08:42:00,
2013-03-31 02:52:00,36.0,22.0,29.96,WNW,290,0.0,-999.0,57,-99.99,,,-99.99,,2013-03-31 08:52:00,
2013-03-31 03:01:00,35.0,22.0,29.96,WNW,290,0.0,-999.0,58,-99.99,,,-99.99,,2013-03-31 09:01:00,
2013-03-31 03:12:00,35.0,22.0,29.96,WNW,290,0.0,-999.0,58,-99.99,,,-99.99,,2013-03-31 09:12:00,
2013-03-31 03:21:00,35.0,22.0,29.96,WNW,290,0.0,-999.0,58,-99.99,,,-99.99,,2013-03-31 09:21:00,
2013-03-31 03:32:00,35.0,22.0,29.96,WNW,290,0.0,-999.0,59,-99.99,,,-99.99,,2013-03-31 09:32:00,
2013-03-31 03:42:00,35.0,22.0,29.96,WNW,290,0.0,-999.0,59,-99.99,,,-99.99,,2013-03-31 09:42:00,
2013-03-31 03:53:00,35.0,22.0,29.95,WNW,290,0.0,-999.0,59,-99.99,,,-99.99,,2013-03-31 09:53:00,
2013-03-31 04:02:00,34.0,22.0,29.95,WNW,290,0.0,-999.0,60,-99.99,,,-99.99,,2013-03-31 10:02:00,
2013-03-31 04:12:00,34.0,22.0,29.95,WNW,290,0.0,-999.0,60,-99.99,,,-99.99,,2013-03-31 10:12:00,
2013-03-31 04:22:00,34.0,21.0,29.95,WNW,290,0.0,-999.0,59,-99.99,,,-99.99,,2013-03-31 10:22:00,
2013-03-31 04:32:00,34.0,21.0,29.95,WNW,290,0.0,-999.0,59,-99.99,,,-99.99,,2013-03-31 10:32:00,
2013-03-31 04:42:00,34.0,21.0,29.95,WNW,290,0.0,-999.0,59,-99.99,,,-99.99,,2013-03-31 10:42:00,
2013-03-31 04:53:00,33.0,21.0,29.95,WNW,290,0.0,-999.0,61,-99.99,,,-99.99,,2013-03-31 10:53:00,
2013-03-31 05:02:00,33.0,21.0,29.95,WNW,290,0.0,-999.0,61,-99.99,,,-99.99,,2013-03-31 11:02:00,
2013-03-31 05:12:00,33.0,21.0,29.95,WNW,290,0.0,-999.0,61,-99.99,,,-99.99,,2013-03-31 11:12:00,
2013-03-31 05:22:00,33.0,21.0,29.96,WNW,290,0.0,-999.0,61,-99.99,,,-99.99,,2013-03-31 11:22:00,
2013-03-31 05:32:00,33.0,21.0,29.95,WNW,290,0.0,-999.0,62,-99.99,,,-99.99,,2013-03-31 11:32:00,
2013-03-31 05:42:00,33.0,21.0,29.95,WNW,290,0.0,-999.0,62,-99.99,,,-99.99,,2013-03-31 11:42:00,
2013-03-31 05:52:00,33.0,21.0,29.95,WNW,290,0.0,-999.0,62,-99.99,,,-99.99,,2013-03-31 11:52:00,
2013-03-31 06:02:00,32.0,20.0,29.96,WNW,290,0.0,-999.0,62,-99.99,,,-99.99,,2013-03-31 12:02:00,
2013-03-31 06:12:00,32.0,20.0,29.96,WNW,290,0.0,-999.0,62,-99.99,,,-99.99,,2013-03-31 12:12:00,
2013-03-31 06:22:00,32.0,20.0,29.96,WNW,290,0.0,-999.0,62,-99.99,,,-99.99,,2013-03-31 12:22:00,
2013-03-31 06:32:00,32.0,20.0,29.96,WNW,290,0.0,-999.0,62,-99.99,,,-99.99,,2013-03-31 12:32:00,
2013-03-31 06:42:00,32.0,20.0,29.96,WNW,290,0.0,-999.0,62,-99.99,,,-99.99,,2013-03-31 12:42:00,
2013-03-31 06:52:00,32.0,20.0,29.96,WNW,290,0.0,-999.0,62,-99.99,,,-99.99,,2013-03-31 12:52:00,
2013-03-31 07:02:00,32.0,20.0,29.96,WNW,290,0.0,-999.0,62,-99.99,,,-99.99,,2013-03-31 13:02:00,
2013-03-31 07:12:00,32.0,20.0,29.96,WNW,290,0.0,-999.0,62,-99.99,,,-99.99,,2013-03-31 13:12:00,
2013-03-31 07:22:00,31.0,20.0,29.96,WNW,290,0.0,-999.0,64,-99.99,,,-99.99,,2013-03-31 13:22:00,
2013-03-31 07:32:00,31.0,20.0,29.97,WNW,290,0.0,-999.0,64,-99.99,,,-99.99,,2013-03-31 13:32:00,
2013-03-31 07:42:00,31.0,20.0,29.97,WNW,290,0.0,-999.0,64,-99.99,,,-99.99,,2013-03-31 13:42:00,
2013-03-31 07:52:00,31.0,20.0,29.98,WNW,290,0.0,-999.0,63,-99.99,,,-99.99,,2013-03-31 13:52:00,
2013-03-31 08:01:00,32.0,20.0,29.98,WNW,290,0.0,-999.0,62,-99.99,,,-99.99,,2013-03-31 14:01:00,
2013-03-31 08:11:00,32.0,20.0,29.98,WNW,290,0.0,-999.0,62,-99.99,,,-99.99,,2013-03-31 14:11:00,
2013-03-31 08:22:00,33.0,21.0,29.98,WNW,290,0.0,-999.0,61,-99.99,,,-99.99,,2013-03-31 14:22:00,
2013-03-31 08:32:00,34.0,21.0,29.98,WNW,290,0.0,-999.0,58,-99.99,,,-99.99,,2013-03-31 14:32:00,
2013-03-31 08:52:00,36.0,22.0,29.98,WNW,290,0.0,-999.0,57,-99.99,,,-99.99,,2013-03-31 14:52:00,
2013-03-31 09:02:00,37.0,22.0,29.98,WNW,290,0.0,-999.0,55,-99.99,,,-99.99,,2013-03-31 15:02:00,
2013-03-31 09:12:00,37.0,22.0,29.98,WNW,290,0.0,-999.0,55,-99.99,,,-99.99,,2013-03-31 15:12:00,
2013-03-31 09:22:00,39.0,23.0,29.97,WNW,290,0.0,-999.0,52,-99.99,,,-99.99,,2013-03-31 15:22:00,
2013-03-31 09:33:00,39.0,22.0,29.96,WNW,290,0.0,-999.0,51,-99.99,,,-99.99,,2013-03-31 15:33:00,
2013-03-31 09:42:00,39.0,22.0,29.96,WNW,290,0.0,-999.0,51,-99.99,,,-99.99,,2013-03-31 15:42:00,
2013-03-31 09:53:00,41.0,23.0,29.96,SW,230,1.0,-999.0,48,-99.99,,,-99.99,,2013-03-31 15:53:00,
2013-03-31 10:02:00,41.0,23.0,29.96,SW,230,1.0,-999.0,48,-99.99,,,-99.99,,2013-03-31 16:02:00,
2013-03-31 10:12:00,41.0,23.0,29.96,SW,230,1.0,-999.0,48,-99.99,,,-99.99,,2013-03-31 16:12:00,
2013-03-31 10:22:00,46.0,23.0,29.96,SW,220,0.0,-999.0,40,-99.99,,,-99.99,,2013-03-31 16:22:00,
2013-03-31 10:32:00,46.0,23.0,29.96,SW,217,2.0,-999.0,40,-99.99,,,-99.99,,2013-03-31 16:32:00,
2013-03-31 10:43:00,46.0,23.0,29.96,SW,217,2.0,-999.0,40,-99.99,,,-99.99,,2013-03-31 16:43:00,
2013-03-31 10:53:00,48.0,23.0,29.95,SE,124,1.0,-999.0,37,-99.99,,,-99.99,,2013-03-31 16:53:00,
2013-03-31 11:02:00,50.0,24.0,29.96,South,169,2.0,-999.0,36,-99.99,,,-99.99,,2013-03-31 17:02:00,
2013-03-31 11:12:00,50.0,24.0,29.96,South,169,2.0,-999.0,36,-99.99,,,-99.99,,2013-03-31 17:12:00,
2013-03-31 11:22:00,51.0,25.0,29.95,South,179,2.0,-999.0,36,-99.99,,,-99.99,,2013-03-31 17:22:00,
2013-03-31 11:31:00,52.0,25.0,29.95,South,182,3.0,-999.0,34,-99.99,,,-99.99,,2013-03-31 17:31:00,
2013-03-31 11:42:00,52.0,25.0,29.95,South,182,3.0,-999.0,34,-99.99,,,-99.99,,2013-03-31 17:42:00,
2013-03-31 11:52:00,53.0,25.0,29.94,SSW,211,4.0,-999.0,34,-99.99,,,-99.99,,2013-03-31 17:52:00,
2013-03-31 12:02:00,53.0,25.0,29.94,SSE,167,4.0,-999.0,34,-99.99,,,-99.99,,2013-03-31 18:02:00,
2013-03-31 12:12:00,53.0,25.0,29.94,SSE,167,4.0,-999.0,34,-99.99,,,-99.99,,2013-03-31 18:12:00,
2013-03-31 12:21:00,54.0,25.0,29.94,West,263,4.0,-999.0,32,-99.99,,,-99.99,,2013-03-31 18:21:00,
2013-03-31 12:32:00,55.0,23.0,29.94,WNW,291,4.0,-999.0,29,-99.99,,,-99.99,,2013-03-31 18:32:00,
2013-03-31 12:42:00,55.0,23.0,29.94,WNW,291,4.0,-999.0,29,-99.99,,,-99.99,,2013-03-31 18:42:00,
2013-03-31 12:53:00,55.0,22.0,29.93,WNW,288,3.0,-999.0,27,-99.99,,,-99.99,,2013-03-31 18:53:00,
2013-03-31 13:02:00,55.0,23.0,29.93,SW,221,5.0,-999.0,28,-99.99,,,-99.99,,2013-03-31 19:02:00,
2013-03-31 13:11:00,55.0,23.0,29.93,SW,221,5.0,-999.0,28,-99.99,,,-99.99,,2013-03-31 19:11:00,
2013-03-31 13:21:00,56.0,23.0,29.92,WNW,302,3.0,-999.0,28,-99.99,,,-99.99,,2013-03-31 19:21:00,
2013-03-31 13:32:00,56.0,23.0,29.92,WSW,252,3.0,-999.0,27,-99.99,,,-99.99,,2013-03-31 19:32:00,
2013-03-31 13:42:00,56.0,23.0,29.92,WSW,252,3.0,-999.0,27,-99.99,,,-99.99,,2013-03-31 19:42:00,
2013-03-31 13:54:00,56.0,23.0,29.91,WNW,298,3.0,-999.0,27,-99.99,,,-99.99,,2013-03-31 19:54:00,
2013-03-31 14:02:00,58.0,25.0,29.91,East,90,4.0,-999.0,28,-99.99,,,-99.99,,2013-03-31 20:02:00,
2013-03-31 14:11:00,58.0,25.0,29.91,East,90,4.0,-999.0,28,-99.99,,,-99.99,,2013-03-31 20:11:00,
2013-03-31 14:22:00,58.0,23.0,29.90,WNW,291,5.0,-999.0,26,-99.99,,,-99.99,,2013-03-31 20:22:00,
2013-03-31 14:32:00,56.0,23.0,29.89,SSE,165,4.0,-999.0,27,-99.99,,,-99.99,,2013-03-31 20:32:00,
2013-03-31 14:42:00,56.0,23.0,29.89,SSE,165,4.0,-999.0,27,-99.99,,,-99.99,,2013-03-31 20:42:00,
2013-03-31 14:52:00,58.0,24.0,29.88,SSE,166,5.0,-999.0,27,-99.99,,,-99.99,,2013-03-31 20:52:00,
2013-03-31 15:02:00,59.0,23.0,29.88,SW,227,3.0,-999.0,25,-99.99,,,-99.99,,2013-03-31 21:02:00,
2013-03-31 15:12:00,59.0,23.0,29.88,SW,227,3.0,-999.0,25,-99.99,,,-99.99,,2013-03-31 21:12:00,
2013-03-31 15:22:00,58.0,23.0,29.86,South,169,2.0,-999.0,26,-99.99,,,-99.99,,2013-03-31 21:22:00,
2013-03-31 15:33:00,58.0,23.0,29.85,SE,132,2.0,-999.0,26,-99.99,,,-99.99,,2013-03-31 21:33:00,
2013-03-31 15:53:00,56.0,23.0,29.84,WNW,291,5.0,-999.0,27,-99.99,,,-99.99,,2013-03-31 21:53:00,
2013-03-31 16:02:00,58.0,21.0,29.84,West,264,4.0,-999.0,24,-99.99,,,-99.99,,2013-03-31 22:02:00,
2013-03-31 16:12:00,58.0,21.0,29.84,West,264,4.0,-999.0,24,-99.99,,,-99.99,,2013-03-31 22:12:00,
2013-03-31 16:23:00,58.0,21.0,29.84,South,184,3.0,-999.0,24,-99.99,,,-99.99,,2013-03-31 22:23:00,
2013-03-31 16:32:00,60.0,22.0,29.83,South,184,3.0,-999.0,23,-99.99,,,-99.99,,2013-03-31 22:32:00,
2013-03-31 16:42:00,60.0,22.0,29.83,South,184,3.0,-999.0,23,-99.99,,,-99.99,,2013-03-31 22:42:00,
2013-03-31 16:53:00,56.0,20.0,29.83,West,259,4.0,-999.0,24,-99.99,,,-99.99,,2013-03-31 22:53:00,
2013-03-31 17:02:00,57.0,21.0,29.83,NNW,331,4.0,-999.0,24,-99.99,,,-99.99,,2013-03-31 23:02:00,
2013-03-31 17:12:00,57.0,21.0,29.83,NNW,331,4.0,-999.0,24,-99.99,,,-99.99,,2013-03-31 23:12:00,
2013-03-31 17:22:00,55.0,20.0,29.83,North,5,3.0,-999.0,25,-99.99,,,-99.99,,2013-03-31 23:22:00,
2013-03-31 17:31:00,58.0,21.0,29.84,West,264,3.0,-999.0,24,-99.99,,,-99.99,,2013-03-31 23:31:00,
2013-03-31 17:42:00,58.0,21.0,29.84,West,264,3.0,-999.0,24,-99.99,,,-99.99,,2013-03-31 23:42:00,
2013-03-31 17:53:00,58.0,19.0,29.84,WNW,299,5.0,-999.0,22,-99.99,,,-99.99,,2013-03-31 23:53:00,
2013-03-31 18:01:00,56.0,20.0,29.84,West,263,5.0,-999.0,24,-99.99,,,-99.99,,2013-04-01 00:01:00,
2013-03-31 18:12:00,56.0,20.0,29.84,West,263,5.0,-999.0,24,-99.99,,,-99.99,,2013-04-01 00:12:00,
2013-03-31 18:22:00,55.0,21.0,29.84,West,279,4.0,-999.0,26,-99.99,,,-99.99,,2013-04-01 00:22:00,
2013-03-31 18:31:00,54.0,21.0,29.84,West,265,2.0,-999.0,27,-99.99,,,-99.99,,2013-04-01 00:31:00,
2013-03-31 18:42:00,54.0,21.0,29.84,West,265,2.0,-999.0,27,-99.99,,,-99.99,,2013-04-01 00:42:00,
2013-03-31 18:52:00,54.0,21.0,29.84,WNW,303,4.0,-999.0,27,-99.99,,,-99.99,,2013-04-01 00:52:00,
2013-03-31 19:01:00,54.0,22.0,29.84,West,277,1.0,-999.0,28,-99.99,,,-99.99,,2013-04-01 01:01:00,
2013-03-31 19:11:00,54.0,22.0,29.84,West,277,1.0,-999.0,28,-99.99,,,-99.99,,2013-04-01 01:11:00,
2013-03-31 19:22:00,53.0,22.0,29.85,WNW,290,3.0,-999.0,29,-99.99,,,-99.99,,2013-04-01 01:22:00,
2013-03-31 19:31:00,52.0,22.0,29.85,SSE,168,1.0,-999.0,30,-99.99,,,-99.99,,2013-04-01 01:31:00,
2013-03-31 19:42:00,52.0,22.0,29.85,SSE,168,1.0,-999.0,30,-99.99,,,-99.99,,2013-04-01 01:42:00,
2013-03-31 19:52:00,52.0,23.0,29.85,WNW,290,4.0,-999.0,32,-99.99,,,-99.99,,2013-04-01 01:52:00,
2013-03-31 20:02:00,51.0,23.0,29.85,WNW,291,4.0,-999.0,33,-99.99,,,-99.99,,2013-04-01 02:02:00,
2013-03-31 20:12:00,51.0,23.0,29.85,WNW,291,4.0,-999.0,33,-99.99,,,-99.99,,2013-04-01 02:12:00,
2013-03-31 20:22:00,51.0,24.0,29.86,WNW,292,4.0,-999.0,35,-99.99,,,-99.99,,2013-04-01 02:22:00,
2013-03-31 20:32:00,50.0,24.0,29.86,West,281,3.0,-999.0,36,-99.99,,,-99.99,,2013-04-01 02:32:00,
2013-03-31 20:42:00,50.0,24.0,29.86,West,281,3.0,-999.0,36,-99.99,,,-99.99,,2013-04-01 02:42:00,
2013-03-31 20:53:00,49.0,25.0,29.85,WNW,292,0.0,-999.0,39,-99.99,,,-99.99,,2013-04-01 02:53:00,
2013-03-31 21:02:00,47.0,24.0,29.86,WNW,292,0.0,-999.0,40,-99.99,,,-99.99,,2013-04-01 03:02:00,
2013-03-31 21:11:00,47.0,24.0,29.86,WNW,292,0.0,-999.0,40,-99.99,,,-99.99,,2013-04-01 03:11:00,
2013-03-31 21:22:00,45.0,23.0,29.87,WNW,292,1.0,-999.0,41,-99.99,,,-99.99,,2013-04-01 03:22:00,
2013-03-31 21:33:00,46.0,23.0,29.87,WNW,292,0.0,-999.0,40,-99.99,,,-99.99,,2013-04-01 03:33:00,
2013-03-31 21:43:00,46.0,23.0,29.87,WNW,292,0.0,-999.0,40,-99.99,,,-99.99,,2013-04-01 03:43:00,
2013-03-31 21:53:00,45.0,23.0,29.88,WNW,292,0.0,-999.0,41,-99.99,,,-99.99,,2013-04-01 03:53:00,
2013-03-31 22:02:00,45.0,23.0,29.88,WNW,292,0.0,-999.0,41,-99.99,,,-99.99,,2013-04-01 04:02:00,
2013-03-31 22:12:00,45.0,23.0,29.88,WNW,292,0.0,-999.0,41,-99.99,,,-99.99,,2013-04-01 04:12:00,
2013-03-31 22:23:00,42.0,22.0,29.88,WNW,292,0.0,-999.0,45,-99.99,,,-99.99,,2013-04-01 04:23:00,
2013-03-31 22:32:00,42.0,22.0,29.88,WNW,292,0.0,-999.0,45,-99.99,,,-99.99,,2013-04-01 04:32:00,
2013-03-31 22:42:00,42.0,22.0,29.88,WNW,292,0.0,-999.0,45,-99.99,,,-99.99,,2013-04-01 04:42:00,
2013-03-31 22:53:00,41.0,22.0,29.89,WNW,292,0.0,-999.0,47,-99.99,,,-99.99,,2013-04-01 04:53:00,
2013-03-31 23:02:00,40.0,22.0,29.89,WNW,292,0.0,-999.0,48,-99.99,,,-99.99,,2013-04-01 05:02:00,
2013-03-31 23:12:00,40.0,22.0,29.89,WNW,292,0.0,-999.0,48,-99.99,,,-99.99,,2013-04-01 05:12:00,
2013-03-31 23:22:00,39.0,22.0,29.89,WNW,292,0.0,-999.0,50,-99.99,,,-99.99,,2013-04-01 05:22:00,
2013-03-31 23:32:00,38.0,22.0,29.89,WNW,292,0.0,-999.0,51,-99.99,,,-99.99,,2013-04-01 05:32:00,
2013-03-31 23:42:00,38.0,22.0,29.89,WNW,292,0.0,-999.0,51,-99.99,,,-99.99,,2013-04-01 05:42:00,
2013-03-31 23:52:00,38.0,22.0,29.89,WNW,292,0.0,-999.0,51,-99.99,,,-99.99,,2013-04-01 05:52:00,